EW9525 Weather Reports


time (UTC)temp
F
wind
direction
speed
knots
gust
knots
rain 1hr
in
rain 24hr
in
rain mn
in
humidity
%
barometer
mb
20260904193103 96 153 10.4 18.2 0.00 0.00 0.00 34 1005.5
20260904191552 95 129 10.4 16.5 0.00 0.00 0.00 36 1005.6
20260904190040 94 131 10.4 14.8 0.00 0.00 0.00 40 1005.8
20260904184538 94 141 10.4 14.8 0.00 0.00 0.00 42 1005.8
20260904183033 92 103 8.7 13.9 0.00 0.00 0.00 43 1006.1
20260904181533 91 95 7.0 14.8 0.00 0.00 0.00 46 1006.4
20260904180027 91 137 10.4 15.6 0.00 0.00 0.00 44 1006.7
20260904174524 89 143 7.8 12.2 0.00 0.00 0.00 48 1006.9
20260904173042 86 148 7.0 12.2 0.00 0.00 0.00 48 1007.1
20260904171519 85 124 5.2 8.7 0.00 0.00 0.00 50 1007.3
20260904170019 84 110 4.3 13.0 0.00 0.00 0.00 53 1007.3
20260904164516 85 148 7.8 10.4 0.00 0.00 0.00 53 1007.2
20260904163015 85 140 6.1 11.3 0.00 0.00 0.00 52 1006.9
20260904161512 83 155 7.0 8.7 0.00 0.00 0.00 54 1006.9
20260904160008 82 104 5.2 7.0 0.00 0.00 0.00 57 1007.0
20260904154507 82 95 2.6 5.2 0.00 0.00 0.00 57 1007.1
20260904153005 81 148 7.0 9.6 0.00 0.00 0.00 59 1006.9
20260904151506 80 125 7.0 11.3 0.00 0.00 0.00 60 1006.9
20260904150002 81 222 2.6 9.6 0.00 0.00 0.00 59 1007.2
20260904144610 79 88 0.9 3.5 0.00 0.00 0.00 61 1007.2
20260904143100 77 144 2.6 7.8 0.00 0.00 0.00 66 1007.0
20260904141554 76 138 3.5 7.0 0.00 0.00 0.00 68 1007.0
20260904140047 75 103 2.6 4.3 0.00 0.00 0.00 67 1007.1
20260904134546 73 316 1.7 3.5 0.00 0.00 0.00 74 1007.0
20260904133051 74 113 0.0 0.9 0.00 0.00 0.00 71 1006.8
20260904131540 72 136 0.0 2.6 0.00 0.00 0.00 72 1006.6
20260904130040 71 127 0.0 6.1 0.00 0.00 0.00 73 1006.2
20260904124542 69 110 0.9 1.7 0.00 0.00 0.00 74 1006.2
20260904123039 68 93 1.7 2.6 0.00 0.00 0.00 76 1006.1
20260904121539 68 96 0.9 3.5 0.00 0.00 0.00 77 1006.1
20260904120042 68 82 1.7 2.6 0.00 0.00 0.00 77 1006.1
20260904114540 68 110 1.7 2.6 0.00 0.00 0.00 76 1006.1
20260904113038 68 77 0.0 0.9 0.00 0.00 0.00 76 1006.1
20260904111537 68 84 0.9 1.7 0.00 0.00 0.00 76 1006.1
20260904110037 69 101 0.0 0.0 0.00 0.00 0.00 73 1006.2
20260904104539 69 86 0.0 0.0 0.00 0.00 0.00 75 1006.2
20260904103035 69 100 0.0 0.0 0.00 0.00 0.00 74 1006.1
20260904101534 69 214 0.0 0.0 0.00 0.00 0.00 75 1006.0
20260904100036 68 213 0.0 0.0 0.00 0.00 0.00 75 1006.0
20260904094533 70 201 0.0 2.6 0.00 0.00 0.00 73 1006.1
20260904093033 71 201 1.7 2.6 0.00 0.00 0.00 72 1006.1
20260904091547 72 186 0.0 2.6 0.00 0.00 0.00 70 1006.0
20260904090031 73 188 3.5 7.8 0.00 0.00 0.00 67 1006.0
20260904084528 72 138 0.9 4.3 0.00 0.00 0.00 71 1005.9
20260904083030 71 137 0.0 3.5 0.00 0.00 0.00 74 1005.8
20260904081525 70 121 2.6 5.2 0.00 0.00 0.00 75 1005.8
20260904080024 70 324 0.0 0.0 0.00 0.00 0.00 75 1005.8
20260904074544 71 101 2.6 6.1 0.00 0.00 0.00 75 1006.0
20260904073023 69 38 0.0 0.0 0.00 0.00 0.00 77 1006.1
20260904071521 68 69 0.0 0.0 0.00 0.00 0.00 79 1006.2
20260904070020 66 8 0.0 1.7 0.00 0.00 0.00 79 1006.3
20260904064518 67 21 0.0 1.7 0.00 0.00 0.00 78 1006.4
20260904063034 67 95 4.3 5.2 0.00 0.00 0.00 77 1006.7
20260904061514 68 340 0.9 1.7 0.00 0.00 0.00 75 1006.1
20260904060011 69 108 0.9 4.3 0.00 0.00 0.00 72 1006.3
20260904054509 70 328 0.0 0.0 0.00 0.00 0.00 70 1006.0
20260904053007 71 328 0.0 0.0 0.00 0.00 0.00 69 1005.9
20260904051505 71 328 0.0 0.0 0.00 0.00 0.00 70 1005.9
20260904050002 71 117 0.0 0.0 0.00 0.00 0.00 70 1006.1
20260904044621 71 219 0.0 0.0 0.00 0.00 0.00 70 1006.0
20260904043001 72 219 0.0 0.0 0.00 0.00 0.00 68 1006.0
20260904041611 71 218 0.0 0.0 0.00 0.00 0.00 70 1006.2
20260904040100 72 153 0.0 2.6 0.00 0.00 0.00 69 1006.3
20260904034559 71 357 0.0 2.6 0.00 0.00 0.00 70 1006.2
20260904033103 73 2 2.6 3.5 0.00 0.00 0.00 67 1006.2
20260904031606 72 220 0.0 0.0 0.00 0.00 0.00 68 1006.2
20260904030057 73 190 0.0 3.5 0.00 0.00 0.00 67 1006.3
20260904024555 75 357 0.0 0.0 0.00 0.00 0.00 61 1005.8
20260904023154 77 354 0.0 0.0 0.00 0.00 0.00 56 1005.7
20260904021554 79 345 0.0 0.0 0.00 0.00 0.00 54 1005.8
20260904020051 79 345 0.0 1.7 0.00 0.00 0.00 55 1005.6
20260904014553 80 360 0.0 0.0 0.00 0.00 0.00 56 1005.4
20260904013052 81 77 0.0 0.0 0.00 0.00 0.00 57 1005.3
20260904011553 83 78 0.0 0.0 0.00 0.00 0.00 54 1005.1
20260904010052 85 82 0.0 0.0 0.00 0.00 0.00 51 1005.0
20260904004550 87 89 0.0 0.9 0.00 0.00 0.00 48 1005.2
20260904003050 89 86 0.0 1.7 0.00 0.00 0.00 45 1005.1
20260904001549 90 79 0.9 2.6 0.00 0.00 0.00 42 1005.0
20260904000049 91 84 1.7 3.5 0.00 0.00 0.00 41 1004.9
20260903234548 91 95 3.5 6.1 0.00 0.00 0.00 40 1004.9
20260903233048 92 82 3.5 5.2 0.00 0.00 0.00 39 1004.7
20260903231552 92 86 4.3 6.1 0.00 0.00 0.00 39 1004.6
20260903230049 93 68 2.6 7.8 0.00 0.00 0.00 34 1004.5
20260903224547 93 58 5.2 8.7 0.00 0.00 0.00 36 1004.4
20260903223045 93 41 5.2 10.4 0.00 0.00 0.00 35 1004.4
20260903221549 93 46 6.1 9.6 0.00 0.00 0.00 36 1004.4
20260903220043 93 22 4.3 8.7 0.00 0.00 0.00 35 1004.5
20260903214544 93 34 7.0 10.4 0.00 0.00 0.00 36 1004.5
20260903213042 92 324 5.2 12.2 0.00 0.00 0.00 35 1004.5
20260903211548 92 6 6.1 13.0 0.00 0.00 0.00 36 1004.6
20260903210041 92 24 7.0 11.3 0.00 0.00 0.00 37 1004.7
20260903204537 91 327 5.2 10.4 0.00 0.00 0.00 37 1004.8
20260903203046 91 30 6.1 11.3 0.00 0.00 0.00 39 1004.7
20260903201534 91 313 7.0 12.2 0.00 0.00 0.00 40 1004.8
20260903200042 90 30 5.2 9.6 0.00 0.00 0.00 42 1004.7
20260903194540 90 52 3.5 9.6 0.00 0.00 0.00 44 1004.9